[[{"header":{"parameterUnit":"m.s-1","parameterCategory":2,"la1":30.2992,"la2":30.254,"lo1":-89.0895,"lo2":-89.0443,"dy":0.0025,"dx":0.0025,"nx":19,"ny":19,"refTime":"2026-04-12T09:00:00:Z","depth":"0","parameterNumber":2,"parameterNumberName":"U-component_of_CURRENTS"},"data":[0,0,0,-0.2057,-0.2059,-0.2112,-0.2112,-0.2084,-0.2083,0,0,0,0,0,0,0,0,0,0,0,-0.2024,-0.2025,-0.2057,-0.2059,-0.2112,-0.2112,-0.2084,-0.2083,0,0,0,0,0,0,0,0,0,0,0,-0.2024,-0.2025,-0.2025,-0.206,-0.2112,-0.2112,-0.2084,-0.2063,0,0,0,0,0,0,0,0,0,0,-0.2022,-0.1997,-0.2025,-0.2025,-0.206,-0.2112,-0.2112,-0.2063,-0.2065,-0.2039,0,-0.2053,0,-0.2081,-0.2081,-0.2081,0,0,0,-0.204,-0.1996,-0.2032,-0.2025,-0.2061,-0.2112,-0.2083,-0.2065,-0.2066,-0.204,-0.2053,-0.2053,-0.208,-0.2081,-0.2081,-0.1979,-0.1978,0,0,-0.2038,-0.201,-0.2031,-0.2033,-0.2081,-0.2081,-0.2085,-0.2066,-0.2055,-0.2053,-0.2053,-0.208,-0.2081,-0.208,-0.198,-0.1979,0,0,0,-0.2042,-0.2007,-0.2044,-0.2033,-0.2058,-0.2083,-0.2087,-0.2056,-0.2074,-0.2053,-0.2079,-0.208,-0.208,-0.1981,-0.198,-0.1997,0,0,0,-0.2039,-0.2013,-0.2043,-0.2024,-0.2059,-0.2068,-0.2076,-0.2075,-0.2075,-0.208,-0.208,-0.208,-0.1982,-0.198,-0.1998,-0.2052,0,0,0,-0.2021,-0.201,-0.2023,-0.2023,-0.2059,-0.207,-0.2086,-0.2076,-0.2091,-0.2081,-0.208,-0.1982,-0.198,-0.2,-0.2052,-0.2047,0,0,0,-0.1981,-0.1997,-0.2022,-0.2043,-0.2059,-0.2083,-0.2086,-0.2098,-0.2092,-0.208,-0.1982,-0.198,-0.2,-0.2052,-0.2048,-0.1865,-0.185,0,0,-0.1983,-0.1995,-0.2012,-0.2037,-0.2045,-0.2074,-0.2056,-0.2058,-0.2042,-0.198,-0.1979,-0.1998,-0.2052,-0.2047,-0.1748,-0.1736,0,0,0,-0.2001,-0.1986,-0.2002,-0.2008,-0.2049,-0.2057,-0.2048,-0.2043,-0.2001,-0.2034,-0.1951,-0.1985,-0.1982,-0.187,-0.1859,-0.1814,-0.197,-0.197,-0.1971,-0.1901,-0.1938,-0.1937,-0.1965,-0.1988,-0.2018,-0.2036,-0.2008,-0.1975,-0.1949,-0.1962,-0.1927,-0.1803,-0.1794,-0.1748,-0.1895,-0.1895,-0.1895,-0.1895,-0.1831,-0.1825,-0.1867,-0.1875,-0.1924,-0.1913,-0.1976,-0.1979,-0.1964,-0.1934,-0.1928,-0.1848,-0.1784,-0.1739,-0.1895,-0.1895,-0.1895,-0.1895,-0.1895,-0.1724,-0.1737,-0.1748,-0.1781,-0.1824,-0.1888,-0.1935,-0.1996,-0.1984,-0.2004,-0.1838,-0.1836,-0.1831,-0.1964,-0.1964,-0.1964,-0.1964,-0.1964,-0.1964,-0.1623,-0.1645,-0.1645,-0.171,-0.1744,-0.1827,-0.1932,-0.1928,-0.1889,-0.1863,-0.186,-0.1781,-0.1949,-0.1987,-0.1967,-0.1967,-0.1966,-0.1966,-0.1966,-0.1493,-0.1545,-0.1539,-0.1566,-0.1659,-0.1661,-0.1795,-0.1717,-0.1741,-0.1665,-0.1623,-0.1774,-0.1761,-0.1765,-0.1796,-0.1729,-0.1729,-0.1729,-0.1729,-0.1422,-0.1446,-0.1433,-0.1458,-0.1515,-0.1576,-0.1431,-0.1427,-0.1435,-0.143,-0.1505,-0.1425,-0.1436,-0.1404,-0.1415,-0.1439,-0.1284,-0.1283,-0.1283,-0.1341,-0.1363,-0.1317,-0.1365,-0.1421,-0.1401,-0.1209,-0.1133,-0.1196,-0.1271,-0.1486,-0.1505,-0.1398,-0.142,-0.1376,-0.1397,-0.1439,0,0]},{"header":{"parameterUnit":"m.s-1","parameterCategory":2,"la1":30.2992,"la2":30.254,"lo1":-89.0895,"lo2":-89.0443,"dy":0.0025,"dx":0.0025,"nx":19,"ny":19,"refTime":"2026-04-12T09:00:00:Z","depth":"0","parameterNumber":3,"parameterNumberName":"V-component_of_CURRENTS"},"data":[0,0,0,-0.0236,-0.0235,-0.0176,-0.0175,-0.0033,-0.0032,0,0,0,0,0,0,0,0,0,0,0,-0.0254,-0.0253,-0.0236,-0.0235,-0.0176,-0.0175,-0.0033,-0.0032,0,0,0,0,0,0,0,0,0,0,0,-0.0254,-0.0253,-0.0253,-0.0235,-0.0176,-0.0175,-0.0034,-0.0091,0,0,0,0,0,0,0,0,0,0,-0.0155,-0.0183,-0.0253,-0.0253,-0.0235,-0.0176,-0.0175,-0.0094,-0.0087,-0.0046,0,-0.0048,0,-0.0044,-0.0022,-0.0022,0,0,0,-0.0218,-0.0189,-0.018,-0.0253,-0.0235,-0.0176,-0.0198,-0.0091,-0.0083,-0.0037,-0.0046,-0.0041,-0.0041,-0.0022,-0.0021,0.0098,0.0098,0,0,-0.0221,-0.0229,-0.0186,-0.0176,-0.0231,-0.02,-0.0196,-0.0086,-0.0077,-0.0046,-0.0038,-0.0039,-0.0021,-0.0019,0.0098,0.0098,0,0,0,-0.0242,-0.0232,-0.0227,-0.0181,-0.018,-0.0199,-0.0194,-0.0082,-0.0083,-0.0037,-0.0037,-0.002,-0.0018,0.0097,0.0098,0.0033,0,0,0,-0.0243,-0.0245,-0.0228,-0.0231,-0.0183,-0.0139,-0.0192,-0.009,-0.0078,-0.0038,-0.002,-0.0017,0.0097,0.0098,0.0034,-0.0023,0,0,0,-0.0254,-0.0246,-0.0245,-0.0232,-0.0215,-0.0141,-0.0134,-0.0088,-0.0079,-0.0022,-0.0016,0.0097,0.0097,0.0035,-0.002,-0.0012,0,0,0,-0.0255,-0.0283,-0.0246,-0.0261,-0.0216,-0.0179,-0.0135,-0.0099,-0.0057,-0.0019,0.0097,0.0098,0.0036,-0.0018,-0.001,0.0071,0.007,0,0,-0.03,-0.0288,-0.0296,-0.0262,-0.0241,-0.0185,-0.0145,-0.008,-0.0029,0.0068,0.0071,0.0034,-0.002,-0.0011,0.0104,0.0102,0,0,0,-0.0316,-0.0314,-0.0302,-0.0274,-0.0234,-0.0191,-0.0111,-0.0076,-0.0007,-0.0004,0.0064,0.0032,0.004,0.0093,0.0092,0.0267,0.01,0.01,0.01,-0.037,-0.0339,-0.0337,-0.0287,-0.0256,-0.0179,-0.0147,-0.0076,-0.001,0.0007,0.0003,-0.0008,0.005,0.005,0.0229,0.0047,0.0046,0.0046,0.0046,-0.041,-0.0408,-0.0357,-0.0349,-0.0293,-0.0249,-0.0166,-0.0126,-0.006,-0.002,-0.0009,0.0051,0.0045,0.0237,0.0043,0.0043,0.0044,0.0044,0.0044,-0.0436,-0.0436,-0.0422,-0.0407,-0.0388,-0.0321,-0.0318,-0.0248,-0.0136,-0.0133,-0.0025,-0.0022,0.0127,-0.0106,-0.0106,-0.0106,-0.0106,-0.0106,-0.0107,-0.0476,-0.0462,-0.0492,-0.0476,-0.0493,-0.0493,-0.042,-0.0359,-0.0206,-0.01,-0.0098,0.0161,-0.0054,-0.007,-0.011,-0.0109,-0.0109,-0.0109,-0.0108,-0.0501,-0.0519,-0.0573,-0.0604,-0.0645,-0.0654,-0.0572,-0.036,-0.027,-0.0151,0.0188,-0.0054,-0.0024,-0.0021,-0.0034,-0.0063,-0.0063,-0.0063,-0.0063,-0.0535,-0.0541,-0.0641,-0.072,-0.0785,-0.0737,-0.059,-0.0315,0.0073,0.0276,0.0304,0.0386,0.0377,0.0435,0.0428,0.0426,0.0515,0.0516,0.0517,-0.0548,-0.059,-0.0671,-0.0758,-0.0843,-0.0798,-0.0583,-0.0135,0.0401,0.0555,0.053,0.0506,0.064,0.0611,0.0713,0.069,0.0689,0,0]}],[{"header":{"parameterUnit":"m.s-1","parameterCategory":2,"la1":30.2992,"la2":30.254,"lo1":-89.0895,"lo2":-89.0443,"dy":0.0025,"dx":0.0025,"nx":19,"ny":19,"refTime":"2026-04-12T09:00:00:Z","depth":"2","parameterNumber":2,"parameterNumberName":"U-component_of_CURRENTS"},"data":[0,0,0,-0.1961,-0.1963,-0.2017,-0.2017,-0.1988,-0.1988,0,0,0,0,0,0,0,0,0,0,0,-0.1927,-0.1928,-0.1961,-0.1963,-0.2017,-0.2017,-0.1988,-0.1988,0,0,0,0,0,0,0,0,0,0,0,-0.1927,-0.1927,-0.1928,-0.1963,-0.2017,-0.2017,-0.1988,-0.1967,0,0,0,0,0,0,0,0,0,0,-0.1925,-0.1903,-0.1927,-0.1928,-0.1964,-0.2017,-0.2017,-0.1967,-0.1968,-0.1942,0,-0.1958,0,-0.1986,-0.1986,-0.1986,0,0,0,-0.1942,-0.1902,-0.1935,-0.1928,-0.1965,-0.2017,-0.1987,-0.1968,-0.197,-0.1944,-0.1958,-0.1958,-0.1986,-0.1986,-0.1985,-0.1886,-0.1885,0,0,-0.1939,-0.1915,-0.1934,-0.1936,-0.1986,-0.1985,-0.1989,-0.197,-0.1962,-0.1958,-0.1958,-0.1986,-0.1985,-0.1985,-0.1887,-0.1886,0,0,0,-0.1945,-0.1913,-0.1947,-0.1936,-0.1962,-0.1987,-0.1991,-0.1962,-0.1979,-0.1959,-0.1985,-0.1985,-0.1985,-0.1888,-0.1887,-0.1905,0,0,0,-0.1942,-0.1919,-0.1946,-0.1929,-0.1963,-0.1975,-0.1983,-0.198,-0.198,-0.1985,-0.1985,-0.1984,-0.1889,-0.1887,-0.1907,-0.1964,0,0,0,-0.1923,-0.1916,-0.1929,-0.1928,-0.1966,-0.1976,-0.1991,-0.198,-0.1996,-0.1986,-0.1984,-0.189,-0.1888,-0.1908,-0.1964,-0.1936,0,0,0,-0.1887,-0.1905,-0.1928,-0.1952,-0.1966,-0.1988,-0.1992,-0.2003,-0.1996,-0.1985,-0.1889,-0.1887,-0.1909,-0.1964,-0.1936,-0.1749,-0.1732,0,0,-0.1892,-0.1904,-0.1921,-0.1944,-0.1951,-0.1979,-0.1961,-0.1963,-0.1948,-0.1887,-0.1885,-0.1906,-0.1964,-0.1936,-0.1634,-0.1621,0,0,0,-0.1911,-0.1896,-0.1912,-0.1918,-0.1956,-0.1964,-0.1953,-0.1949,-0.1909,-0.194,-0.186,-0.1896,-0.1878,-0.1764,-0.1752,-0.1877,-0.1878,-0.1878,-0.1878,-0.182,-0.1853,-0.1851,-0.1874,-0.1897,-0.1926,-0.1944,-0.1918,-0.1883,-0.1859,-0.1875,-0.1825,-0.1699,-0.1689,-0.1807,-0.1807,-0.1807,-0.1807,-0.1807,-0.1752,-0.1743,-0.1783,-0.1789,-0.1836,-0.1826,-0.1889,-0.1892,-0.1872,-0.185,-0.1828,-0.1745,-0.1678,-0.1807,-0.1807,-0.1807,-0.1807,-0.1807,-0.1807,-0.1646,-0.1657,-0.1667,-0.1698,-0.1742,-0.1805,-0.1847,-0.1919,-0.1893,-0.1908,-0.1719,-0.1716,-0.1875,-0.1849,-0.1849,-0.1849,-0.1849,-0.185,-0.185,-0.1544,-0.1565,-0.1566,-0.163,-0.1667,-0.1753,-0.1849,-0.1835,-0.1781,-0.1746,-0.1742,-0.184,-0.1838,-0.1875,-0.1851,-0.1851,-0.1851,-0.185,-0.185,-0.1412,-0.1465,-0.1463,-0.1494,-0.1593,-0.1585,-0.1712,-0.1602,-0.1607,-0.1518,-0.1633,-0.1637,-0.1619,-0.1624,-0.1653,-0.1574,-0.1574,-0.1574,-0.1574,-0.134,-0.1364,-0.1362,-0.1397,-0.1447,-0.1505,-0.1327,-0.1289,-0.1322,-0.1346,-0.1356,-0.1291,-0.1305,-0.1268,-0.1282,-0.1304,-0.1134,-0.1134,-0.1133,-0.126,-0.1287,-0.1248,-0.1308,-0.1352,-0.1324,-0.11,-0.0973,-0.0994,-0.1124,-0.1364,-0.1528,-0.1456,-0.147,-0.1433,-0.1447,-0.1491,0,0]},{"header":{"parameterUnit":"m.s-1","parameterCategory":2,"la1":30.2992,"la2":30.254,"lo1":-89.0895,"lo2":-89.0443,"dy":0.0025,"dx":0.0025,"nx":19,"ny":19,"refTime":"2026-04-12T09:00:00:Z","depth":"2","parameterNumber":3,"parameterNumberName":"V-component_of_CURRENTS"},"data":[0,0,0,-0.0304,-0.0303,-0.0238,-0.0237,-0.0089,-0.0087,0,0,0,0,0,0,0,0,0,0,0,-0.0325,-0.0324,-0.0304,-0.0303,-0.0238,-0.0237,-0.0089,-0.0087,0,0,0,0,0,0,0,0,0,0,0,-0.0325,-0.0324,-0.0324,-0.0303,-0.0238,-0.0237,-0.0089,-0.015,0,0,0,0,0,0,0,0,0,0,-0.022,-0.0251,-0.0324,-0.0324,-0.0303,-0.0238,-0.0237,-0.0154,-0.0147,-0.0106,0,-0.0107,0,-0.01,-0.0077,-0.0077,0,0,0,-0.0285,-0.0258,-0.0247,-0.0324,-0.0303,-0.0238,-0.0262,-0.015,-0.0142,-0.0096,-0.0105,-0.01,-0.0098,-0.0077,-0.0076,0.0035,0.0035,0,0,-0.0289,-0.0299,-0.0253,-0.0243,-0.0298,-0.0264,-0.026,-0.0146,-0.0136,-0.0104,-0.0096,-0.0096,-0.0076,-0.0074,0.0035,0.0035,0,0,0,-0.0312,-0.0302,-0.0295,-0.0248,-0.0245,-0.0263,-0.0258,-0.0141,-0.0142,-0.0095,-0.0094,-0.0075,-0.0073,0.0035,0.0035,-0.0027,0,0,0,-0.0313,-0.0316,-0.0297,-0.03,-0.0248,-0.0201,-0.0256,-0.0149,-0.0137,-0.0095,-0.0075,-0.0072,0.0034,0.0035,-0.0025,-0.0076,0,0,0,-0.0325,-0.0317,-0.0316,-0.0301,-0.0282,-0.0203,-0.0196,-0.0147,-0.0136,-0.0077,-0.0071,0.0034,0.0035,-0.0024,-0.0073,-0.0049,0,0,0,-0.0328,-0.0356,-0.0316,-0.0332,-0.0283,-0.0249,-0.0196,-0.0159,-0.0115,-0.0074,0.0034,0.0035,-0.0024,-0.0071,-0.0048,0.0021,0.0021,0,0,-0.0374,-0.0362,-0.037,-0.0333,-0.0319,-0.0256,-0.0218,-0.0145,-0.0092,0.0004,0.0007,-0.0026,-0.0073,-0.0049,0.0037,0.0036,0,0,0,-0.0391,-0.0393,-0.0381,-0.0357,-0.0315,-0.0268,-0.0185,-0.0146,-0.0073,-0.0068,-0.0002,-0.003,-0.0013,0.0032,0.0032,0.0036,0.0036,0.0036,0.0036,-0.0455,-0.0425,-0.0426,-0.0378,-0.0346,-0.0263,-0.0224,-0.0148,-0.0083,-0.0065,-0.0062,-0.0067,-0.0019,-0.0018,-0.0027,-0.0028,-0.0028,-0.0028,-0.0028,-0.0505,-0.0505,-0.0453,-0.0447,-0.0384,-0.034,-0.0244,-0.02,-0.0123,-0.009,-0.0068,-0.0014,-0.0022,-0.0033,-0.0032,-0.0031,-0.0031,-0.003,-0.003,-0.054,-0.054,-0.0525,-0.0509,-0.0483,-0.0407,-0.0383,-0.0311,-0.0193,-0.0182,-0.0074,-0.0072,-0.0108,-0.0147,-0.0147,-0.0148,-0.0148,-0.0148,-0.0148,-0.0586,-0.0573,-0.06,-0.058,-0.0589,-0.0577,-0.0475,-0.04,-0.0244,-0.0144,-0.0142,-0.0106,-0.0102,-0.0113,-0.015,-0.0149,-0.0149,-0.0149,-0.0149,-0.0627,-0.0637,-0.0689,-0.0713,-0.0735,-0.0713,-0.0613,-0.0378,-0.0277,-0.0164,-0.0093,-0.0093,-0.0061,-0.0059,-0.0066,-0.009,-0.009,-0.009,-0.009,-0.0669,-0.0672,-0.0763,-0.0829,-0.0862,-0.0789,-0.0605,-0.0339,-0.0114,-0.002,-0.0023,0.0012,0.0009,0.0047,0.0047,0.0043,0.0048,0.0048,0.0048,-0.0695,-0.073,-0.0807,-0.0874,-0.0912,-0.083,-0.0587,-0.0216,0.0062,0.005,-0.003,-0.0075,-0.0028,-0.0031,0.0025,0.0026,0.0017,0,0]}],[{"header":{"parameterUnit":"m.s-1","parameterCategory":2,"la1":30.2992,"la2":30.254,"lo1":-89.0895,"lo2":-89.0443,"dy":0.0025,"dx":0.0025,"nx":19,"ny":19,"refTime":"2026-04-12T09:00:00:Z","depth":"4","parameterNumber":2,"parameterNumberName":"U-component_of_CURRENTS"},"data":[0,0,0,-0.0797,-0.0799,-0.0923,-0.0924,-0.1064,-0.1065,0,0,0,0,0,0,0,0,0,0,0,-0.0758,-0.0758,-0.0796,-0.0799,-0.0923,-0.0924,-0.1064,-0.1065,0,0,0,0,0,0,0,0,0,0,0,-0.0757,-0.0758,-0.0759,-0.0799,-0.0923,-0.0924,-0.1063,-0.0978,0,0,0,0,0,0,0,0,0,0,-0.0862,-0.0828,-0.0758,-0.0759,-0.08,-0.0922,-0.0924,-0.0975,-0.0984,-0.0997,0,-0.1011,0,-0.1032,-0.1072,-0.1073,0,0,0,-0.0816,-0.082,-0.0845,-0.0759,-0.0801,-0.0922,-0.0872,-0.098,-0.099,-0.1009,-0.1013,-0.1019,-0.1034,-0.1073,-0.1073,-0.1154,-0.1154,0,0,-0.0809,-0.0792,-0.0838,-0.0851,-0.0826,-0.0868,-0.0875,-0.0986,-0.0999,-0.1014,-0.1022,-0.1037,-0.1074,-0.1074,-0.1154,-0.1154,0,0,0,-0.0778,-0.0787,-0.081,-0.0845,-0.0864,-0.0871,-0.088,-0.0994,-0.0999,-0.1024,-0.1038,-0.1074,-0.1076,-0.1154,-0.1154,-0.1162,0,0,0,-0.0775,-0.0768,-0.0807,-0.08,-0.0861,-0.0934,-0.0885,-0.0992,-0.1005,-0.1038,-0.1074,-0.1077,-0.1153,-0.1154,-0.1161,-0.1195,0,0,0,-0.0753,-0.0766,-0.0776,-0.0798,-0.0843,-0.0933,-0.0946,-0.0996,-0.1013,-0.1073,-0.1077,-0.1153,-0.1154,-0.1161,-0.1193,-0.1221,0,0,0,-0.0738,-0.0752,-0.0776,-0.081,-0.0841,-0.091,-0.0945,-0.1028,-0.1082,-0.1075,-0.1153,-0.1154,-0.1161,-0.1192,-0.122,-0.1096,0,0,0,-0.0744,-0.0753,-0.0775,-0.0798,-0.0853,-0.0895,-0.0962,-0.1057,-0.1082,-0.1118,-0.1121,-0.1161,-0.1193,-0.1221,-0.1103,0,0,0,0,-0.077,-0.0785,-0.0808,-0.0851,-0.0898,-0.0954,-0.1028,-0.1056,-0.112,-0.111,-0.1161,-0.1182,-0.1199,-0.1122,-0.1154,-0.1154,-0.1154,-0.1154,-0.1154,-0.0772,-0.0801,-0.0819,-0.0859,-0.0924,-0.1009,-0.1062,-0.111,-0.1126,-0.1149,-0.1187,-0.1216,-0.1133,-0.1169,-0.117,-0.117,-0.117,-0.117,-0.117,-0.0781,-0.0765,-0.0829,-0.0869,-0.0928,-0.1006,-0.1094,-0.1129,-0.1201,-0.1188,-0.1203,-0.1134,-0.117,-0.117,-0.117,-0.117,-0.117,-0.117,-0.117,-0.0739,-0.072,-0.0775,-0.0851,-0.0924,-0.1021,-0.111,-0.1172,-0.1223,-0.1261,-0.119,-0.1239,-0.1241,-0.1269,-0.1269,-0.1269,-0.1269,-0.127,-0.127,-0.0664,-0.0695,-0.0728,-0.0831,-0.0878,-0.0987,-0.1129,-0.119,-0.1257,-0.1214,-0.128,-0.125,-0.1247,-0.1248,-0.1274,-0.1273,-0.1272,-0.1272,-0.1272,-0.0595,-0.0633,-0.0671,-0.0721,-0.0847,-0.0924,-0.1073,-0.1169,-0.1228,-0.1223,-0.118,-0.1184,-0.118,-0.1179,-0.1177,-0.1184,-0.1182,-0.1181,0,-0.0535,-0.056,-0.0594,-0.0651,-0.075,-0.0873,-0.0966,-0.1071,-0.1119,-0.1062,-0.1222,-0.117,-0.1172,-0.1164,-0.1162,-0.1156,0,0,0,-0.0506,-0.0513,-0.051,-0.058,-0.069,-0.0832,-0.0989,-0.1,-0.1083,-0.1131,-0.1144,-0.1154,-0.1265,-0.1286,-0.129,-0.1286,-0.1287,0,0]},{"header":{"parameterUnit":"m.s-1","parameterCategory":2,"la1":30.2992,"la2":30.254,"lo1":-89.0895,"lo2":-89.0443,"dy":0.0025,"dx":0.0025,"nx":19,"ny":19,"refTime":"2026-04-12T09:00:00:Z","depth":"4","parameterNumber":3,"parameterNumberName":"V-component_of_CURRENTS"},"data":[0,0,0,-0.0127,-0.0127,-0.0103,-0.0103,-0.0008,-0.0007,0,0,0,0,0,0,0,0,0,0,0,-0.0139,-0.0139,-0.0127,-0.0127,-0.0103,-0.0103,-0.0008,-0.0007,0,0,0,0,0,0,0,0,0,0,0,-0.0139,-0.0139,-0.0139,-0.0127,-0.0103,-0.0103,-0.0008,-0.0041,0,0,0,0,0,0,0,0,0,0,-0.0071,-0.0095,-0.0139,-0.0139,-0.0127,-0.0103,-0.0103,-0.0043,-0.0039,-0.0003,0,-0.0009,0,-0.0006,-0.0,0.0,0,0,0,-0.0119,-0.0098,-0.0092,-0.0139,-0.0127,-0.0103,-0.0112,-0.0041,-0.0036,0.0003,-0.0008,-0.0005,-0.0004,0.0001,0.0001,0.0037,0.0037,0,0,-0.0121,-0.0129,-0.0096,-0.0089,-0.0131,-0.0112,-0.0111,-0.0039,-0.0036,-0.0008,-0.0003,-0.0003,0.0001,0.0002,0.0037,0.0037,0,0,0,-0.013,-0.013,-0.0127,-0.0093,-0.0094,-0.0112,-0.011,-0.004,-0.0039,-0.0002,-0.0002,0.0002,0.0003,0.0038,0.0037,0.001,0,0,0,-0.013,-0.0136,-0.0128,-0.0132,-0.0096,-0.0075,-0.0113,-0.0044,-0.0036,-0.0002,0.0002,0.0004,0.0038,0.0037,0.0012,-0.0006,0,0,0,-0.0138,-0.0137,-0.0138,-0.0132,-0.0125,-0.0077,-0.0072,-0.0043,-0.0036,0.0,0.0005,0.0039,0.0038,0.0014,-0.0003,0.0022,0,0,0,-0.0142,-0.0165,-0.0138,-0.0165,-0.0126,-0.0131,-0.0072,-0.0059,-0.0034,0.0003,0.0038,0.0037,0.0014,-0.0002,0.0023,0.0013,0,0,0,-0.0177,-0.017,-0.0188,-0.0163,-0.019,-0.0133,-0.0132,-0.0069,-0.0035,0.0022,0.0022,0.0012,-0.0003,0.0022,-0.0044,0,0,0,0,-0.0203,-0.0219,-0.0223,-0.0229,-0.0214,-0.0184,-0.0125,-0.009,-0.0041,-0.0026,-0.0,-0.0009,0.0008,0.0004,0.0033,0.0033,0.0033,0.0033,0.0033,-0.0262,-0.0259,-0.0287,-0.0278,-0.0272,-0.021,-0.0173,-0.0113,-0.0071,-0.0059,-0.004,-0.0053,-0.0062,-0.0046,-0.0046,-0.0046,-0.0046,-0.0046,-0.0046,-0.0319,-0.0332,-0.0326,-0.0355,-0.0315,-0.0303,-0.0207,-0.0159,-0.0087,-0.0074,-0.0055,-0.0037,-0.0049,-0.0049,-0.0048,-0.0048,-0.0048,-0.0048,-0.0047,-0.0346,-0.0351,-0.0372,-0.0405,-0.0399,-0.0349,-0.03,-0.0213,-0.0128,-0.0103,-0.0077,-0.0062,-0.0047,-0.0083,-0.0083,-0.0083,-0.0083,-0.0083,-0.0083,-0.0358,-0.0377,-0.0426,-0.0455,-0.0473,-0.0449,-0.0346,-0.0278,-0.0175,-0.0115,-0.0107,-0.0065,-0.0064,-0.0049,-0.0083,-0.0083,-0.0083,-0.0083,-0.0083,-0.0395,-0.0406,-0.0477,-0.0513,-0.0542,-0.0515,-0.0428,-0.0279,-0.0202,-0.0127,-0.0102,-0.0101,-0.0083,-0.0081,-0.0066,-0.0106,-0.0107,-0.0107,0,-0.0412,-0.0426,-0.0514,-0.057,-0.0585,-0.0541,-0.0435,-0.0338,-0.0211,-0.0213,-0.0212,-0.0191,-0.0187,-0.0176,-0.0174,-0.0163,0,0,0,-0.0441,-0.0463,-0.0525,-0.0584,-0.0605,-0.0479,-0.0401,-0.0351,-0.0232,-0.0152,-0.0113,-0.0111,-0.0133,-0.0082,-0.0053,-0.0051,-0.0025,0,0]}]]